Location: Bijele Vode
(45.2833°N, 16.2000°E)
Time: 16:39:14
(UTC+00:00)

ATLAS 3B R/B - Pass Details

Date: 18 September 2020
Orbit: 1016 x 1179 km, 63.8° (Epoch: 04 October)

Event Time Altitude Azimuth Distance (km) Brightness Sun altitude
Rises 19:32:43 0° 323° (NW) 3,818 6.7 -26.3°
Reaches altitude 10° 19:35:31 10° 331° (NNW) 2,882 5.7 -26.7°
Maximum altitude 19:41:53 40° 40° (NE) 1,553 3.4 -27.6°
Enters shadow 19:42:49 38° 58° (ENE) 1,599 3.4 -27.8°
